West Memphis, AR

11:20 PM CDT on May 22, 2018 (GMT -0500)
West Memphis Municipal

Weather History for KAWM - March, 2014

Change the Weather History Date:

Monday, March 31, 2014

  Actual Average Record
Temperature  
Mean Temperature 58 °F -  
Max Temperature 71 °F 67 °F 84 °F (1963)
Min Temperature 44 °F 44 °F 30 °F (1987)
Degree Days  
Heating Degree Days 8    
Growing Degree Days 8 (Base 50)    
Moisture  
Dew Point 44 °F    
Average Humidity 62    
Maximum Humidity 93    
Minimum Humidity 39    
Precipitation  
Precipitation 0.01 in - - ()
Sea Level Pressure  
Sea Level Pressure 30.03 in    
Wind  
Wind Speed 8 mph (South)    
Max Wind Speed 22 mph    
Max Gust Speed 26 mph    
Visibility 10 miles    
Events Rain    
Averages and records for this station are not official NWS values.
T = Trace of Precipitation, MM = Missing Value Source: NWS Daily Summary

Daily Weather History Graph

Daily Weather History Graph

Search for Another Location

Airport or City:

Astronomy

Mar. 31, 2014 Rise Set
Actual Time 6:49 AM CDT 7:21 PM CDT
Civil Twilight 6:23 AM CDT 7:47 PM CDT
Nautical Twilight 5:53 AM CDT 8:17 PM CDT
Astronomical Twilight 5:23 AM CDT 8:47 PM CDT
Moon 7:14 AM CDT (3/31) 8:36 PM CDT (3/31)
Length of Visible Light 13h 23m
Length of Day
12h 32m
New Moon, 1% of the Moon is Illuminated
Mar 31
New Moon
Apr 7
First Quarter
Apr 15
Full
Apr 22
Last Quarter
Apr 29
New

Hourly Weather History & Observations

Time (CDT) Temp. Windchill Dew Point Humidity Pressure Visibility Wind Dir Wind Speed Gust Speed Precip Events Conditions
12:53 AM 46.9 °F - 43.0 °F 86% 30.12 in 10.0 mi Calm Calm - N/A   Clear
1:53 AM 44.1 °F 41.5 °F 42.1 °F 93% 30.10 in 10.0 mi SSE 4.6 mph - N/A   Clear
2:53 AM 44.1 °F 41.5 °F 42.1 °F 93% 30.09 in 10.0 mi SSE 4.6 mph - N/A   Clear
3:53 AM 45.0 °F 42.6 °F 42.1 °F 90% 30.07 in 10.0 mi SSE 4.6 mph - N/A   Clear
4:53 AM 44.1 °F 40.8 °F 41.0 °F 89% 30.06 in 10.0 mi SSE 5.8 mph - N/A   Clear
5:53 AM 44.1 °F 40.8 °F 39.9 °F 85% 30.06 in 10.0 mi SSE 5.8 mph - N/A   Clear
6:53 AM 44.1 °F 40.8 °F 39.9 °F 85% 30.08 in 10.0 mi SSE 5.8 mph - N/A   Clear
7:53 AM 48.9 °F - 43.0 °F 80% 30.10 in 10.0 mi SSE 8.1 mph - N/A   Clear
8:53 AM 55.0 °F - 44.1 °F 67% 30.09 in 10.0 mi SSE 11.5 mph - N/A   Clear
9:53 AM 59.0 °F - 43.0 °F 55% 30.09 in 10.0 mi South 11.5 mph - N/A   Clear
10:53 AM 63.0 °F - 44.1 °F 50% 30.10 in 10.0 mi South 13.8 mph - N/A   Clear
11:53 AM 66.0 °F - 45.0 °F 47% 30.09 in 10.0 mi South 17.3 mph 25.3 mph N/A   Clear
12:53 PM 66.9 °F - 46.0 °F 47% 30.06 in 10.0 mi South 16.1 mph - N/A   Clear
1:53 PM 69.1 °F - 45.0 °F 42% 30.03 in 10.0 mi South 18.4 mph - N/A   Clear
2:53 PM 71.1 °F - 45.0 °F 39% 29.99 in 10.0 mi SSW 16.1 mph 24.2 mph N/A   Clear
3:53 PM 69.1 °F - 43.0 °F 39% 29.96 in 10.0 mi South 19.6 mph 26.5 mph N/A   Overcast
4:53 PM 68.0 °F - 43.0 °F 40% 29.96 in 10.0 mi SSW 16.1 mph 23.0 mph N/A   Overcast
5:53 PM 66.9 °F - 44.1 °F 44% 29.96 in 10.0 mi SSW 8.1 mph - 0.01 in Rain Light Rain
6:53 PM 66.9 °F - 44.1 °F 44% 29.97 in 10.0 mi SSW 10.4 mph - 0.00 in   Mostly Cloudy
7:53 PM 63.0 °F - 48.0 °F 58% 29.89 in 10.0 mi SE 21.9 mph - 0.00 in Rain Light Rain
8:53 PM 64.0 °F - 46.0 °F 52% 29.94 in 10.0 mi South 9.2 mph - 0.00 in   Mostly Cloudy
9:53 PM 66.0 °F - 44.1 °F 45% 29.97 in 10.0 mi WSW 3.5 mph - N/A   Overcast
10:53 PM 64.0 °F - 46.9 °F 54% 29.98 in 10.0 mi SSW 5.8 mph - N/A   Overcast
11:53 PM 60.1 °F - 48.9 °F 67% 29.99 in 10.0 mi Calm Calm - N/A   Scattered Clouds